Date String (YYYY-MM-DD hh:mm:ss) UTC,Instrument flags,Ambient pressure (hPa),Sample flow (lpm),Bypass flow (lpm),Sample temperature (°C),Ambient temperature (°C),ASC tube jacket temperature (°C),LED temperature (°C),Box temperature (°C),Sample RH (%),Span deviation,Mass concentration (μg/m³),Mass concentration (μg/m³),Mass concentration (μg/m³)
DateTimeUTC,F1_M11,P_M11,Q1_M11,Q2_M11,T1_M11,T2_M11,T3_M11,T4_M11,T5_M11,U1_M11,ZSPAN_M11,X0_M11,X2_M11,X1_M11
2022-02-25 22:00:00,,0829.1,5.00,0.00,24.8,24.0,00.0,33.7,26.7,06.4,0000.6,0024.70,0015.85,0014.94
2022-02-25 22:01:00,,0829.2,4.99,0.00,24.8,24.0,00.0,33.7,26.7,06.4,0000.4,0025.36,0015.88,0014.94
2022-02-25 22:02:00,,0829.2,5.01,0.00,24.8,24.0,00.0,33.7,26.7,06.5,0000.4,0026.35,0015.87,0014.95
2022-02-25 22:03:00,,0829.2,5.00,0.00,24.8,24.0,00.0,33.7,26.7,06.4,0000.6,0025.14,0015.84,0014.94
2022-02-25 22:04:00,,0829.1,5.00,0.00,24.8,24.0,00.0,33.7,26.7,06.3,0000.5,0024.51,0015.78,0014.92
2022-02-25 22:05:00,,0829.1,5.00,0.00,24.8,24.0,00.0,33.7,26.7,06.4,0000.3,0024.27,0015.74,0014.90
2022-02-25 22:06:00,,0829.1,4.99,0.00,24.8,24.0,00.0,33.7,26.7,06.4,0000.1,0024.08,0015.72,0014.89
2022-02-25 22:07:00,,0829.1,5.00,0.00,24.8,24.0,00.0,33.7,26.7,06.4,0000.2,0024.11,0015.73,0014.87
2022-02-25 22:08:00,,0829.1,5.01,0.00,24.8,24.0,00.0,33.7,26.7,06.3,0000.5,0024.08,0015.75,0014.87
2022-02-25 22:09:00,,0829.1,5.00,0.00,24.8,24.0,00.0,33.7,26.6,06.4,0000.5,0024.07,0015.71,0014.82
2022-02-25 22:10:00,,0829.1,4.99,0.00,24.8,24.0,00.0,33.7,26.6,06.3,0000.5,0023.60,0015.67,0014.80
2022-02-25 22:11:00,,0829.2,5.01,0.00,24.8,24.0,00.0,33.7,26.7,06.4,0000.3,0022.85,0015.69,0014.82
2022-02-25 22:12:00,,0829.2,5.00,0.00,24.8,24.0,00.0,33.7,26.7,06.4,0000.4,0022.44,0015.72,0014.84
2022-02-25 22:13:00,,0829.2,4.99,0.00,24.8,24.0,00.0,33.7,26.7,06.5,0000.4,0021.39,0015.71,0014.82
2022-02-25 22:14:00,,0829.2,5.00,0.00,24.8,24.0,00.0,33.7,26.7,06.4,0000.3,0021.70,0015.75,0014.85
2022-02-25 22:15:00,,0829.2,5.01,0.00,24.8,24.0,00.0,33.7,26.7,06.3,0000.6,0022.52,0015.76,0014.88
2022-02-25 22:16:00,,0829.2,5.00,0.00,24.8,24.0,00.0,33.7,26.7,06.2,0000.8,0023.03,0015.78,0014.89
2022-02-25 22:17:00,,0829.1,5.01,0.00,24.8,24.0,00.0,33.7,26.7,06.3,0000.7,0023.90,0015.82,0014.88
2022-02-25 22:18:00,,0829.1,5.00,0.00,24.8,24.0,00.0,33.7,26.7,06.3,0000.9,0024.45,0015.78,0014.86
2022-02-25 22:19:00,,0829.1,5.00,0.00,24.8,24.0,00.0,33.7,26.7,06.3,0000.7,0024.66,0015.76,0014.85
2022-02-25 22:20:00,,0829.2,4.98,0.00,24.8,24.0,00.0,33.7,26.7,06.2,0000.6,0024.66,0015.80,0014.91
2022-02-25 22:21:00,,0829.2,5.00,0.00,24.8,24.0,00.0,33.7,26.7,06.2,0000.6,0024.85,0015.88,0014.96
2022-02-25 22:22:00,,0829.2,5.00,0.00,24.8,24.0,00.0,33.7,26.7,06.3,0000.6,0024.96,0015.91,0014.98
2022-02-25 22:23:00,,0829.2,5.00,0.00,24.8,24.0,00.0,33.7,26.7,06.3,0000.7,0025.33,0015.93,0015.02
2022-02-25 22:24:00,,0829.3,5.00,0.00,24.8,24.0,00.0,33.7,26.6,06.2,0000.8,0026.02,0016.02,0015.10
2022-02-25 22:25:00,,0829.2,5.01,0.00,24.8,24.0,00.0,33.7,26.6,06.2,0000.7,0025.86,0016.08,0015.18
2022-02-25 22:26:00,,0829.2,4.99,0.00,24.8,24.0,00.0,33.7,26.6,06.3,0000.7,0025.29,0016.18,0015.25
2022-02-25 22:27:00,,0829.2,4.99,0.00,24.8,24.0,00.0,33.7,26.6,06.4,0000.8,0024.96,0016.27,0015.34
2022-02-25 22:28:00,,0829.2,5.01,0.00,24.8,24.0,00.0,33.7,26.6,06.4,0001.0,0024.19,0016.32,0015.44
2022-02-25 22:29:00,,0829.2,5.00,0.00,24.8,24.0,00.0,33.7,26.6,06.4,0000.8,0023.48,0016.35,0015.51
2022-02-25 22:30:00,,0829.2,5.01,0.00,24.8,24.0,00.0,33.7,26.6,06.3,0000.7,0023.35,0016.44,0015.57
2022-02-25 22:31:00,,0829.2,5.00,0.00,24.8,24.0,00.0,33.7,26.7,06.4,0000.6,0023.95,0016.52,0015.60
2022-02-25 22:32:00,,0829.2,4.99,0.00,24.8,24.0,00.0,33.7,26.7,06.3,0000.6,0024.37,0016.58,0015.64
2022-02-25 22:33:00,,0829.2,4.99,0.00,24.8,24.0,00.0,33.7,26.7,06.4,0000.8,0024.40,0016.60,0015.64
2022-02-25 22:34:00,,0829.2,5.02,0.00,24.8,24.0,00.0,33.7,26.7,06.3,0000.9,0024.14,0016.62,0015.66
2022-02-25 22:35:00,,0829.2,5.00,0.00,24.8,24.0,00.0,33.7,26.7,06.3,0001.1,0023.63,0016.61,0015.65
2022-02-25 22:36:00,,0829.2,5.00,0.00,24.8,24.0,00.0,33.7,26.7,06.4,0000.8,0023.57,0016.59,0015.60
2022-02-25 22:37:00,,0829.2,5.00,0.00,24.8,24.0,00.0,33.7,26.6,06.3,0000.8,0023.40,0016.55,0015.58
2022-02-25 22:38:00,,0829.2,5.00,0.00,24.8,24.0,00.0,33.7,26.6,06.3,0000.9,0023.28,0016.53,0015.58
2022-02-25 22:39:00,,0829.2,4.99,0.00,24.8,24.0,00.0,33.7,26.7,06.3,0001.0,0023.29,0016.58,0015.62
2022-02-25 22:40:00,,0829.2,5.00,0.00,24.8,24.0,00.0,33.7,26.7,06.4,0001.2,0023.45,0016.62,0015.66
2022-02-25 22:41:00,,0829.2,5.00,0.00,24.8,24.0,00.0,33.7,26.7,06.5,0001.3,0023.55,0016.62,0015.66
2022-02-25 22:42:00,,0829.2,5.01,0.00,24.8,24.0,00.0,33.7,26.7,06.4,0001.4,0023.21,0016.60,0015.68
2022-02-25 22:43:00,,0829.2,5.00,0.00,24.8,24.1,00.0,33.8,26.7,06.3,0001.2,0022.70,0016.59,0015.70
2022-02-25 22:44:00,,0829.2,5.00,0.00,24.8,24.1,00.0,33.8,26.7,06.3,0001.0,0022.87,0016.65,0015.76
2022-02-25 22:45:00,,0829.2,5.00,0.00,24.8,24.1,00.0,33.8,26.7,06.3,0000.9,0023.07,0016.71,0015.81
2022-02-25 22:46:00,,0829.2,4.99,0.00,24.8,24.1,00.0,33.8,26.7,06.4,0000.4,0022.97,0016.71,0015.81
2022-02-25 22:47:00,,0829.2,4.99,0.00,24.8,24.1,00.0,33.8,26.7,06.3,0000.9,0023.66,0016.69,0015.83
2022-02-25 22:48:00,,0829.2,5.00,0.00,24.8,24.1,00.0,33.8,26.7,06.2,0000.9,0023.78,0016.77,0015.86
2022-02-25 22:49:00,,0829.3,5.01,0.00,24.8,24.1,00.0,33.8,26.7,06.3,0000.7,0024.79,0016.78,0015.86
2022-02-25 22:50:00,,0829.2,5.00,0.00,24.8,24.1,00.0,33.8,26.7,06.4,0000.6,0025.30,0016.78,0015.84
2022-02-25 22:51:00,,0829.2,5.00,0.00,24.8,24.1,00.0,33.8,26.7,06.3,0000.7,0025.28,0016.80,0015.86
2022-02-25 22:52:00,,0829.2,5.00,0.00,24.8,24.1,00.0,33.8,26.7,06.2,0000.5,0025.70,0016.88,0015.92
2022-02-25 22:53:00,,0829.2,5.00,0.00,24.8,24.1,00.0,33.8,26.7,06.2,0000.4,0026.24,0016.90,0015.94
2022-02-25 22:54:00,,0829.2,4.99,0.00,24.8,24.1,00.0,33.8,26.7,06.3,0000.5,0026.47,0016.91,0015.94
2022-02-25 22:55:00,,0829.2,5.00,0.00,24.8,24.1,00.0,33.8,26.7,06.3,0000.3,0026.36,0016.85,0015.90
2022-02-25 22:56:00,,0829.2,5.01,0.00,24.8,24.1,00.0,33.8,26.7,06.3,0000.2,0026.15,0016.86,0015.89
2022-02-25 22:57:00,,0829.2,4.99,0.00,24.8,24.1,00.0,33.8,26.7,06.3,0000.6,0026.20,0016.85,0015.89
2022-02-25 22:58:00,,0829.2,4.99,0.00,24.8,24.1,00.0,33.8,26.7,06.3,0000.5,0025.87,0016.92,0015.92
2022-02-25 22:59:00,,0829.2,5.01,0.00,24.8,24.1,00.0,33.8,26.7,06.3,0000.2,0025.84,0016.91,0015.93
